Theta_e
278 279 278 278 277 277 278 277 277 277 277 277 277 277 278 278 278 278 278 278 278 278 278 278 278 278 278 279 278 278 278 278 278 277 277 277 277 277 277 278 278 278 279 279 280 280 280 279 280 281 282 282 282 283 283 284 284 284 284 283 283 283 282 281 280 281 284 284 285 284 283 282 282 283 283 283 284 284 286 285 285 285 286 286 287
278 279 278 277 277 277 277 276 277 276 277 277 277 277 277 277 277 277 277 277 277 277 277 278 278 278 278 278 278 278 277 278 278 277 277 277 277 278 278 277 276 277 277 277 278 279 279 279 279 280 280 281 281 281 282 282 282 283 283 283 283 283 283 282 281 281 281 283 283 283 281 281 283 281 283 283 283 284 283 284 285 285 285 285 285
278 278 278 278 279 276 275 276 276 275 276 276 276 276 276 276 276 276 276 276 276 276 276 276 276 276 277 277 277 277 277 277 277 277 277 277 276 277 277 276 276 276 276 276 277 277 278 278 278 279 280 280 280 280 281 281 281 281 282 282 282 282 283 283 282 281 281 282 283 283 284 282 282 283 282 284 284 284 283 283 284 285 285 285 285
277 277 277 277 276 275 275 275 275 275 275 275 275 275 276 276 276 276 276 276 276 277 276 276 276 276 276 276 276 276 276 276 276 276 276 276 276 276 276 276 276 276 276 276 276 276 276 277 277 278 279 279 279 279 280 280 280 280 280 281 281 282 282 282 282 281 281 280 282 282 283 282 283 281 282 283 282 282 283 284 283 283 284 284 284
277 277 277 277 275 275 275 274 274 275 275 275 275 275 275 275 275 275 275 275 276 275 276 275 276 275 275 275 275 275 276 276 276 276 276 276 276 276 276 276 276 276 276 276 277 276 276 276 276 277 277 277 278 279 279 279 279 279 280 280 280 281 282 282 282 282 281 280 281 282 282 282 282 282 281 281 282 282 282 282 283 283 283 284 284
277 277 275 276 275 275 275 275 275 274 275 275 275 275 275 275 275 275 275 275 275 275 275 275 275 274 274 274 274 274 275 275 275 275 276 276 276 276 276 276 276 276 276 276 276 276 276 276 276 277 277 277 277 278 279 279 279 279 278 279 280 280 280 280 280 280 281 280 280 280 281 281 281 281 281 281 281 281 281 282 282 282 282 282 282
276 275 275 274 275 275 274 274 274 274 274 274 274 274 274 274 274 274 274 274 273 273 273 273 273 273 273 274 274 274 274 275 275 275 275 275 275 275 275 275 275 276 276 276 276 277 277 277 277 277 277 277 277 277 278 278 279 278 279 279 279 279 279 279 280 279 279 280 280 280 280 281 280 281 282 281 281 282 282 281 281 281 281 282 282
275 275 275 275 275 274 274 274 274 274 274 274 273 273 273 273 273 273 272 272 272 272 272 272 272 272 273 273 273 274 274 274 274 274 274 275 275 275 275 276 276 276 276 276 277 277 277 277 277 277 277 277 277 277 278 278 278 278 279 279 279 279 278 279 279 279 279 279 279 279 280 280 279 279 280 278 278 279 280 280 280 282 281 281 282
275 274 274 274 274 274 273 274 273 273 273 272 272 272 271 271 271 271 270 270 271 271 271 271 271 271 272 272 272 272 272 272 273 273 273 274 275 275 275 275 275 275 275 276 276 276 276 277 277 277 277 279 281 281 281 281 280 279 279 280 279 279 278 278 278 278 278 278 278 279 279 279 280 279 278 278 278 280 280 280 281 282 282 281 281
274 273 273 273 273 273 273 272 272 272 271 271 270 270 270 269 269 268 268 268 268 269 269 270 270 269 269 269 269 269 270 270 272 274 276 274 273 273 273 273 274 274 274 274 275 275 276 276 277 279 279 279 280 281 281 281 282 280 279 279 279 279 278 278 278 278 278 277 277 278 278 278 279 280 279 280 280 281 280 279 279 281 280 280 281
273 272 272 272 272 272 271 271 270 269 270 269 268 267 268 267 266 266 266 266 267 267 267 267 267 267 267 267 266 267 268 268 272 274 275 276 274 272 272 273 273 273 273 273 273 274 274 275 275 277 277 278 277 279 280 280 281 281 282 282 282 280 279 279 278 278 278 277 278 278 278 278 279 280 280 280 281 279 280 280 280 280 279 278 278
271 271 271 271 271 270 270 269 268 267 267 266 266 265 265 264 264 265 265 265 266 265 265 265 265 265 265 265 265 265 265 269 271 273 274 275 275 272 272 271 271 272 272 272 272 273 273 274 274 275 275 275 275 275 276 278 279 280 280 280 281 282 283 281 280 279 279 278 278 278 278 278 279 280 280 280 280 279 279 280 280 280 280 279 279
270 270 269 269 268 268 267 266 265 265 265 264 264 264 263 263 263 263 263 264 264 264 264 264 264 264 264 264 263 264 264 267 270 272 273 274 275 274 271 271 271 271 271 271 271 271 272 272 272 273 274 276 275 274 274 274 276 278 278 279 279 280 280 282 282 281 281 280 279 279 280 279 279 279 281 281 280 279 279 279 279 280 280 280 280
268 268 267 268 267 267 266 263 263 263 263 263 263 262 262 262 262 262 263 263 263 262 262 262 263 263 263 263 263 263 263 266 270 272 273 274 274 274 271 270 270 270 269 269 269 269 269 269 269 269 270 271 272 272 273 272 273 273 273 273 274 276 278 279 280 282 282 280 280 279 281 282 281 281 282 283 281 280 279 279 279 280 280 280 282
267 268 266 266 265 264 264 263 263 263 262 262 261 261 261 261 262 262 262 262 261 261 261 261 261 262 262 262 262 262 262 268 270 272 272 273 274 273 270 269 269 268 268 268 268 268 269 269 268 268 269 269 270 271 271 272 271 271 271 271 272 273 273 274 275 276 278 280 280 280 280 282 282 283 283 284 283 283 282 281 281 281 282 282 282
266 266 264 264 264 265 263 262 262 261 262 261 260 261 261 260 260 261 261 261 261 261 261 261 261 260 261 261 261 260 261 268 269 270 272 273 274 270 268 268 267 267 267 268 268 269 269 269 269 269 269 269 272 274 274 273 272 272 272 272 272 273 273 276 278 279 278 278 278 280 281 281 284 283 283 284 283 283 283 283 281 280 280 280 279
265 264 263 263 263 263 263 262 261 260 260 260 259 259 260 260 260 260 259 260 260 260 260 260 260 260 260 260 260 260 260 264 269 270 271 272 271 267 267 267 267 267 267 267 268 268 269 269 269 269 269 268 271 274 275 274 271 271 271 271 272 273 273 275 278 279 280 281 282 283 284 284 286 287 287 288 286 285 282 280 280 281 280 279 279
264 262 263 262 263 262 262 260 259 259 259 258 259 260 260 260 259 259 259 259 259 259 259 259 259 259 259 259 259 259 260 264 268 270 271 271 271 268 267 266 266 267 267 267 268 268 268 270 270 268 268 268 272 274 275 274 272 272 271 271 271 271 271 273 274 274 278 279 279 280 281 283 285 286 286 287 287 287 283 280 281 282 279 280 279
262 262 262 263 262 261 260 260 259 258 258 259 258 258 259 259 259 259 259 258 259 259 259 258 258 258 259 259 262 261 260 262 267 269 270 271 269 268 268 267 266 266 267 267 267 267 268 269 271 271 271 272 275 275 276 275 272 272 271 271 270 270 271 273 273 274 274 273 274 275 276 277 278 280 282 285 285 286 285 284 284 282 280 280 280
263 262 262 262 261 260 259 258 258 258 258 258 258 258 258 258 258 258 258 258 258 258 258 258 257 258 258 259 259 260 259 260 262 268 270 271 272 269 268 267 266 266 267 267 266 267 268 268 270 273 274 275 275 276 276 276 273 272 272 270 269 269 272 272 272 273 273 274 274 274 274 275 276 277 279 281 282 282 283 284 284 284 282 281 281
261 261 261 260 259 259 258 257 257 257 257 257 258 258 258 258 258 257 257 257 257 257 257 257 257 258 258 259 259 259 260 260 261 268 270 271 272 271 268 267 267 267 267 267 267 267 267 268 268 272 275 275 276 276 277 277 277 274 273 272 272 273 275 272 273 275 273 274 274 275 275 276 276 276 277 278 280 281 282 283 284 285 284 282 281
261 259 259 258 258 256 256 256 257 257 256 256 256 257 257 257 257 256 257 256 256 256 257 257 257 257 258 259 259 259 261 263 261 266 269 271 272 273 269 269 269 269 268 268 268 268 269 269 268 271 275 275 276 277 277 277 277 274 274 277 278 278 275 275 274 274 273 273 273 274 274 275 276 276 277 278 279 280 281 281 283 284 285 285 284
260 259 258 257 255 255 255 255 256 256 256 256 256 256 256 255 255 256 256 255 255 255 256 256 256 256 257 258 258 259 260 260 265 264 268 271 272 273 273 272 274 271 270 269 269 269 270 270 270 273 275 276 276 277 277 277 276 274 277 277 277 278 277 274 273 272 272 272 272 272 273 274 274 275 277 278 279 279 279 280 282 283 284 285 285
257 256 255 255 254 254 253 254 255 255 255 255 255 255 255 255 255 255 256 255 255 255 256 256 256 256 256 257 258 259 260 261 264 268 267 271 272 273 274 275 275 272 271 270 270 270 270 269 270 274 275 276 276 277 277 277 276 278 278 278 278 277 273 271 270 270 270 270 270 270 271 273 274 275 276 278 279 279 280 280 281 282 283 283 284
255 254 253 252 253 253 253 253 254 253 254 254 254 255 255 253 255 255 255 255 255 255 255 255 255 256 257 257 259 261 262 262 263 266 270 271 273 274 274 274 275 275 271 271 271 270 273 275 276 276 276 277 277 277 276 275 275 276 277 277 276 273 272 270 270 269 269 269 269 270 271 272 274 275 276 277 278 279 280 281 281 281 282 283 283
253 253 252 252 253 253 253 254 254 254 255 255 255 255 255 255 255 255 255 255 255 254 255 255 256 257 258 259 261 262 263 264 265 266 268 269 270 272 273 274 274 274 274 273 275 276 276 277 277 277 276 274 272 270 270 271 275 277 277 276 273 272 271 270 270 270 269 269 269 269 270 271 272 274 276 276 276 277 279 279 280 279 280 280 281
254 253 253 253 252 252 253 254 254 255 253 255 255 255 255 255 254 255 255 254 255 255 256 257 258 259 260 261 262 263 264 265 266 267 268 268 268 269 269 269 272 273 271 269 271 269 270 272 271 274 274 276 276 276 275 274 272 271 270 269 269 269 269 269 269 268 268 268 269 269 270 271 273 273 273 274 275 276 278 279 279 279 279 279 280
253 252 251 251 252 252 253 256 256 255 255 254 255 255 255 254 254 254 255 256 256 257 258 259 259 260 260 261 262 264 265 266 267 267 268 268 269 271 271 271 271 270 270 270 269 269 269 271 272 270 269 268 268 268 268 268 269 269 269 269 270 270 271 273 273 271 271 271 271 271 271 271 271 272 273 273 274 276 278 278 278 278 278 278 278
253 251 251 250 252 254 254 254 254 254 254 254 254 255 255 255 255 256 258 259 259 258 259 260 262 264 265 265 266 265 266 266 267 271 271 274 272 271 271 271 271 272 273 275 273 272 270 268 267 267 266 266 266 266 267 267 268 268 268 269 269 270 270 270 269 269 269 269 269 270 270 271 272 273 274 274 274 275 277 278 279 278 277 278 277
250 250 251 251 251 252 253 253 253 254 253 254 254 255 259 264 263 261 261 265 268 270 270 267 267 268 267 268 268 266 266 267 272 274 274 274 275 275 275 275 276 274 275 276 273 270 270 269 268 267 267 267 267 267 267 267 267 268 269 271 271 271 270 270 270 270 270 270 270 270 271 272 272 273 273 274 275 276 277 278 278 278 277 276 277
252 253 253 252 253 253 253 254 254 253 254 254 254 254 255 257 263 265 266 267 268 270 270 271 271 271 269 267 268 272 272 273 273 273 274 274 275 275 275 274 275 274 274 270 269 268 267 266 265 265 265 265 266 266 267 267 268 268 269 270 270 270 271 270 271 271 271 271 271 271 272 272 272 273 274 275 275 276 277 278 279 278 278 277 277
253 253 252 252 254 255 254 254 254 254 254 254 254 254 254 254 256 261 265 266 268 269 269 270 270 270 271 270 268 268 270 272 272 273 274 273 273 273 273 273 272 272 272 271 265 265 265 264 265 265 266 266 266 267 267 268 268 268 269 269 269 270 270 270 271 271 271 271 271 271 272 272 273 274 275 276 276 276 276 277 277 277 277 278 277
252 252 252 253 254 255 255 254 254 254 253 253 253 253 254 254 254 255 258 264 267 267 267 268 268 269 270 270 271 270 270 271 272 273 272 272 271 271 271 270 269 270 269 263 261 261 262 262 262 263 263 263 264 265 265 265 266 267 267 268 268 270 271 271 272 271 271 271 272 272 272 273 274 275 276 277 277 276 277 277 277 277 277 276 276
252 251 253 253 253 253 253 254 254 254 254 254 254 254 254 255 255 256 255 256 258 262 263 265 266 267 268 269 269 270 270 271 272 272 271 270 270 270 268 263 266 266 264 260 259 259 260 260 261 261 262 262 263 263 263 264 265 266 267 268 269 271 271 271 271 271 271 272 272 273 274 275 276 276 276 277 277 277 276 276 277 277 276 276 276
251 253 255 256 253 254 254 255 254 254 254 253 253 254 255 255 256 256 255 255 255 255 256 258 263 266 265 266 268 269 270 271 272 271 270 269 269 268 264 258 256 257 258 258 258 258 259 259 259 260 260 260 261 262 262 262 263 265 266 267 269 271 271 270 270 271 271 272 272 273 274 275 276 276 276 276 276 276 277 277 276 276 276 276 276
252 253 253 254 254 254 254 253 254 254 253 253 254 255 255 256 256 255 255 256 256 255 256 257 258 262 266 266 267 268 269 270 271 269 268 268 267 265 256 255 255 256 256 256 257 257 258 258 258 258 258 259 260 261 261 262 264 264 265 267 268 270 271 271 271 271 272 272 273 274 275 275 275 276 276 276 276 276 276 276 276 276 276 276 276
252 252 253 253 253 253 253 253 253 254 257 257 256 254 254 255 256 255 254 254 255 255 255 256 256 257 260 259 261 265 268 269 269 267 266 266 266 259 254 255 255 255 256 256 256 257 257 257 257 257 258 258 259 260 261 262 263 264 265 266 267 269 271 271 272 272 272 273 273 274 275 275 275 275 275 275 275 275 275 275 275 275 276 276 275
252 252 253 251 253 253 253 253 254 257 255 254 254 255 254 254 254 254 254 254 255 255 254 254 257 255 255 256 260 260 262 267 266 263 262 261 258 256 256 255 256 255 255 256 256 256 256 256 257 257 258 258 259 260 260 261 262 262 263 264 266 268 271 272 273 273 274 274 274 275 275 275 275 275 274 274 274 274 273 273 273 273 273 273 273
250 254 256 257 258 256 254 254 253 252 252 253 252 253 254 253 253 253 252 253 253 253 254 253 253 254 255 256 257 260 263 260 256 255 255 256 256 256 255 255 255 255 256 256 256 256 256 256 257 258 258 258 259 259 260 261 261 262 263 263 264 266 268 269 269 270 271 271 272 274 274 275 275 275 274 274 274 273 273 273 273 273 272 273 273
252 252 254 257 255 256 256 255 254 252 252 251 251 251 252 252 252 252 252 252 252 253 253 253 253 254 255 256 258 262 261 258 255 254 255 255 255 255 255 255 255 255 255 255 256 256 256 257 257 257 258 259 259 260 260 261 261 262 263 263 264 265 266 267 267 267 267 268 269 271 272 273 274 274 274 273 274 273 273 273 272 272 273 272 272
249 252 254 255 256 254 254 253 252 251 250 251 251 251 251 253 253 253 252 252 253 253 253 253 253 254 255 259 264 265 260 256 254 254 254 255 255 255 255 255 255 255 256 256 256 257 257 257 258 258 258 259 260 260 260 261 261 262 262 263 263 264 265 265 265 265 266 266 267 268 269 269 270 270 271 272 273 272 271 271 271 271 271 271 271
248 248 249 250 253 251 250 251 251 253 252 252 251 251 252 252 252 252 252 253 253 253 253 253 253 253 257 261 263 264 259 254 253 253 254 254 254 254 255 255 255 255 255 256 256 257 257 258 258 258 259 260 260 261 261 261 262 262 262 263 263 263 264 264 264 264 265 265 266 267 267 268 269 270 270 272 269 269 270 270 270 269 269 269 269
250 249 249 250 250 249 249 250 250 249 249 249 250 253 254 253 251 252 252 252 253 253 253 253 253 253 254 259 259 260 254 252 254 253 253 253 253 254 254 254 254 255 255 256 257 257 257 258 258 259 260 260 261 261 262 262 262 262 263 263 263 263 263 263 263 264 264 265 266 266 266 267 267 266 266 267 268 268 268 268 268 268 268 268 268
249 250 250 250 249 249 250 249 249 250 249 252 253 252 252 251 251 251 251 250 251 251 252 252 252 253 253 254 254 253 251 252 252 252 253 253 253 253 253 253 254 254 254 255 256 257 257 257 257 258 260 261 262 263 263 263 263 263 263 263 263 263 263 263 263 263 264 264 265 265 265 265 265 264 264 264 263 265 266 267 267 267 267 267 267
248 248 249 248 247 247 248 248 249 249 251 251 249 248 251 250 251 251 251 251 251 252 252 252 252 252 252 251 251 251 251 251 252 252 252 252 252 252 252 253 253 253 253 254 255 255 256 256 257 257 258 260 262 263 263 264 264 264 264 263 263 263 263 263 263 264 264 264 264 265 265 265 264 264 264 264 263 262 263 263 265 267 266 266 265
248 248 249 248 248 248 248 247 250 248 248 248 249 248 249 249 250 250 251 251 251 251 251 251 250 250 251 250 251 251 251 251 251 252 252 252 252 252 252 252 252 252 253 253 254 254 255 256 256 257 258 259 261 262 263 264 264 265 265 264 264 265 265 265 265 264 263 264 264 264 264 264 264 265 265 265 265 265 265 264 264 264 264 264 265
247 248 248 248 247 248 249 249 248 248 247 248 249 249 250 250 249 250 251 252 252 251 250 250 249 249 249 249 250 250 251 251 251 251 251 251 251 251 251 251 252 252 252 253 253 253 254 255 255 256 258 260 261 262 263 264 265 265 266 265 265 265 265 265 265 264 263 264 264 264 263 263 263 263 264 264 264 264 264 264 264 264 265 265 266
247 247 247 248 247 247 248 247 249 252 250 249 249 250 251 250 249 249 248 249 249 249 249 248 247 247 249 249 249 250 250 250 251 251 251 251 251 251 251 250 251 251 251 252 252 253 253 254 255 256 258 259 261 262 262 263 264 265 266 266 267 266 266 265 265 264 264 264 264 263 263 263 263 263 264 263 263 263 263 263 264 264 265 265 266
246 247 247 248 248 248 248 249 249 249 249 249 249 250 249 248 249 248 248 248 248 248 247 248 248 247 247 249 249 250 250 251 250 250 250 250 250 250 250 250 251 251 251 251 252 252 252 253 254 256 258 259 261 262 262 263 264 265 265 266 267 267 266 266 265 265 264 263 263 263 263 263 263 263 263 263 263 263 263 263 264 264 264 264 264
248 248 248 248 249 249 249 249 249 248 249 249 249 248 248 248 248 248 248 248 247 247 246 247 248 247 247 248 249 249 250 249 250 250 250 250 250 250 250 250 250 250 250 251 251 251 252 252 253 255 257 259 260 261 262 263 264 265 265 266 267 267 266 266 265 265 265 263 263 263 263 263 262 262 263 263 263 263 263 263 263 264 264 263 263
248 248 248 249 249 249 248 248 248 249 249 248 248 248 248 248 248 247 247 247 247 247 247 246 246 246 247 247 249 249 249 249 249 250 250 250 250 250 250 250 250 250 250 250 251 251 251 251 252 253 255 257 259 260 261 263 265 265 266 266 267 267 267 266 265 265 265 264 262 263 262 262 262 262 262 263 263 263 263 263 263 262 262 262 262
Wind_Speed
3 2 1 2 3 2 1 2 4 3 4 4 5 5 5 5 6 5 6 8 7 9 9 8 8 8 10 11 12 13 13 12 8 6 5 5 5 5 5 5 7 7 7 10 8 8 9 9 9 8 7 7 7 7 7 7 6 6 6 6 7 6 7 8 12 16 11 5 9 8 5 4 6 6 8 7 7 7 8 9 9 8 9 9 10
1 1 1 1 1 1 2 1 3 4 5 4 6 5 5 6 5 5 6 6 5 7 7 8 8 9 9 9 9 9 9 10 11 11 12 12 10 6 7 7 7 8 7 8 8 7 9 10 10 10 8 8 8 7 7 7 7 7 7 7 7 8 6 8 11 12 17 5 7 6 6 3 9 3 7 8 9 6 9 9 8 9 9 9 9
2 1 1 1 0 1 2 3 3 4 5 4 5 5 5 5 4 5 6 5 4 4 5 5 6 5 6 7 8 9 10 11 10 10 11 11 12 12 10 9 9 9 9 9 9 8 9 9 11 10 8 10 10 8 7 7 7 7 9 7 8 8 7 8 9 13 14 12 6 10 7 5 8 8 6 8 8 7 9 8 8 8 8 8 8
3 2 2 1 0 2 3 3 4 4 4 4 5 5 5 4 5 5 5 6 8 7 6 7 7 7 8 8 8 8 8 8 9 9 10 10 12 12 12 11 10 10 10 11 10 9 9 10 10 9 9 11 11 10 8 7 8 8 8 8 7 9 8 7 9 11 11 13 9 7 7 7 9 7 6 6 6 7 8 8 5 8 7 7 9
3 3 1 0 2 3 3 3 3 4 4 4 5 5 5 5 5 6 7 7 7 7 8 6 7 8 8 9 10 9 9 10 10 9 8 7 9 10 11 11 12 12 11 11 10 10 11 11 11 9 8 10 11 10 9 10 8 8 9 9 8 8 7 7 9 9 11 13 12 7 7 8 7 6 4 7 7 7 7 9 8 8 8 8 7
1 0 1 1 3 3 2 2 3 4 4 4 4 5 5 5 6 5 5 8 8 7 8 8 7 10 9 9 9 9 9 8 9 9 9 9 9 9 10 10 10 11 12 13 11 9 10 11 11 10 9 10 11 10 9 11 10 10 10 9 8 7 9 8 8 9 11 13 11 11 6 8 8 8 6 7 8 9 8 8 6 6 6 6 8
1 1 2 3 1 1 2 3 3 3 4 4 4 4 5 5 6 6 6 7 8 9 8 9 9 8 10 9 9 10 10 9 9 9 9 9 9 10 11 12 12 11 11 11 12 12 11 11 11 10 10 10 10 10 10 10 10 11 10 10 9 8 9 10 9 9 10 12 12 10 9 7 8 11 7 7 9 9 10 8 8 6 6 8 10
3 3 3 2 1 2 3 2 3 3 3 4 4 5 5 6 6 6 6 8 8 8 9 10 10 8 9 9 9 9 10 10 10 10 9 10 11 11 11 12 12 12 12 12 11 11 11 11 11 11 11 10 10 10 10 10 9 11 10 9 9 10 10 10 10 9 10 11 11 12 8 9 7 6 4 1 5 7 6 7 11 10 9 8 10
4 4 2 2 2 2 3 3 3 4 4 5 6 6 6 6 6 7 6 7 7 8 8 8 10 11 10 9 10 10 10 10 8 9 11 13 12 13 13 13 13 13 13 13 12 12 11 10 11 11 13 16 21 20 18 17 12 11 10 9 9 10 11 10 10 10 10 10 12 10 11 10 9 8 7 7 10 13 5 7 10 11 6 6 9
4 3 3 2 1 2 2 3 3 4 5 6 6 7 7 8 8 8 8 7 7 7 7 8 8 10 11 10 9 9 9 8 13 22 19 14 14 12 12 12 13 13 13 14 13 13 12 12 11 21 26 26 25 25 24 23 23 17 14 12 10 11 11 12 12 10 10 12 12 11 12 12 11 9 9 9 9 7 6 5 10 10 5 8 9
3 3 2 1 1 1 2 3 3 4 5 5 4 5 8 7 7 6 6 6 7 7 8 9 8 9 10 11 11 10 9 9 20 21 22 24 17 12 12 12 13 13 13 12 14 13 12 11 11 15 18 20 19 25 26 26 24 25 25 24 20 15 13 13 13 11 11 12 12 12 12 14 14 10 9 8 8 8 9 8 10 9 8 8 14
4 3 2 1 2 3 3 4 5 5 5 5 5 5 5 6 6 6 7 7 7 6 8 8 9 9 9 10 10 10 10 14 21 22 23 24 21 16 14 14 13 14 14 16 15 13 13 12 11 11 11 13 14 15 18 23 26 26 26 25 25 26 25 18 15 13 12 12 13 14 13 14 14 11 8 6 8 7 8 9 10 11 10 10 10
3 3 2 2 3 3 4 4 4 4 4 5 6 6 7 7 7 8 8 7 7 7 9 9 9 9 9 11 12 11 10 16 21 23 23 23 24 21 14 14 15 15 15 15 15 15 14 14 14 12 11 19 15 12 13 14 20 26 27 28 27 28 27 28 28 21 15 15 14 16 15 14 15 13 9 9 4 9 7 10 10 10 11 12 13
3 3 3 3 3 3 3 3 3 4 4 5 5 7 7 7 6 6 6 7 7 8 7 8 8 9 9 11 12 11 11 16 23 24 24 25 24 21 15 15 14 15 15 15 14 15 15 15 15 15 14 15 14 14 13 14 13 12 12 12 13 19 24 27 27 30 26 18 16 17 17 13 15 14 12 8 9 9 9 11 9 11 11 14 14
3 3 2 2 2 2 4 3 4 4 4 5 5 5 6 6 6 6 6 7 8 8 8 9 8 8 9 10 11 12 10 21 23 25 24 25 25 22 14 14 13 13 14 14 14 15 15 14 14 14 14 13 12 16 16 15 14 13 13 14 14 14 14 15 15 14 14 13 14 17 18 17 17 17 15 11 12 12 11 11 11 12 12 11 11
3 2 2 2 2 3 3 4 4 4 5 5 5 6 5 5 7 7 6 6 5 6 7 6 9 10 9 10 11 12 11 21 23 24 25 25 27 16 13 13 13 13 13 13 14 13 13 14 14 14 13 14 16 23 22 18 15 14 14 13 13 13 14 16 22 21 18 17 17 17 16 18 22 19 17 14 12 11 11 10 7 8 9 10 13
2 2 1 1 2 2 3 3 4 4 4 6 6 6 6 6 5 4 7 6 7 7 7 8 8 9 10 9 11 12 11 17 23 24 25 27 21 12 13 11 12 13 13 14 14 13 13 13 14 14 15 16 21 25 26 24 17 15 14 16 14 14 15 13 18 24 27 29 30 32 35 36 35 35 34 36 25 16 10 11 13 10 11 13 12
3 2 1 0 1 1 2 2 4 4 4 5 7 6 5 5 5 4 6 8 8 7 8 9 8 8 10 11 10 12 12 16 24 24 25 25 22 14 11 12 13 14 13 14 12 12 14 22 21 17 18 18 24 26 26 21 15 14 14 14 15 14 13 10 10 14 25 29 31 34 34 33 33 35 36 34 34 27 15 16 14 11 14 12 14
3 2 1 0 1 1 2 2 3 4 5 6 5 7 6 6 6 5 6 6 8 7 8 8 9 8 8 10 15 16 12 15 22 24 26 25 20 13 11 10 10 11 13 12 12 12 13 15 24 23 21 22 28 25 25 21 15 12 14 15 16 16 12 13 12 13 11 11 14 16 18 23 24 20 19 32 35 26 19 17 13 14 14 13 14
3 2 1 1 1 1 2 3 4 4 6 6 5 6 6 6 6 6 6 6 7 7 7 8 10 10 9 9 10 10 12 12 14 25 24 25 26 16 11 11 11 14 13 12 12 11 11 12 16 24 27 27 27 28 27 28 19 14 11 12 13 16 10 13 15 15 16 15 14 13 15 16 15 17 16 14 16 17 18 17 16 15 14 15 14
2 2 1 1 2 2 3 3 5 5 5 6 5 5 5 6 6 6 7 7 6 8 9 9 9 10 9 9 9 10 10 13 14 24 25 26 27 23 12 12 12 12 12 13 11 11 10 10 10 18 27 29 29 30 29 28 26 18 13 12 13 16 20 14 17 24 15 14 13 11 13 12 14 12 16 15 14 12 14 16 17 17 16 15 15
2 1 2 2 2 3 4 4 4 5 5 5 6 6 5 5 6 7 6 6 8 9 9 8 9 10 9 9 9 11 12 17 15 20 25 26 26 28 17 13 15 14 13 11 10 9 10 11 11 19 30 30 30 30 30 28 29 18 16 25 30 31 22 16 13 11 10 12 11 13 13 13 12 12 13 13 15 14 14 15 15 17 17 16 16
3 2 2 3 3 4 4 5 6 4 5 5 6 8 6 5 6 6 6 6 7 9 9 9 9 10 9 8 8 10 11 12 21 18 23 25 27 27 28 23 27 18 13 13 11 12 10 12 13 26 30 31 31 31 29 31 26 18 28 29 28 30 25 13 12 11 10 10 12 13 12 13 13 13 14 13 12 14 16 16 16 16 16 16 16
3 2 3 3 4 4 4 5 5 5 5 6 5 7 7 5 5 5 6 6 7 8 7 7 8 9 10 10 9 9 11 11 15 22 20 26 26 28 28 29 29 18 15 11 9 10 12 12 16 29 31 31 32 31 29 26 19 27 28 29 29 27 16 11 10 10 12 10 12 11 13 13 12 13 12 11 13 13 16 16 16 16 15 14 15
2 3 4 4 4 4 4 5 5 5 6 5 6 6 6 4 6 4 5 5 6 7 8 7 8 9 9 10 10 10 10 11 11 14 23 25 28 28 29 30 29 30 20 14 14 13 20 31 33 32 31 31 32 30 23 22 26 27 28 29 27 14 11 10 11 11 13 14 12 13 11 12 11 13 12 14 15 16 15 15 14 15 14 15 15
3 4 4 4 4 4 5 5 5 5 6 5 6 6 6 6 6 6 5 6 6 7 8 7 8 9 9 10 11 11 11 11 11 11 12 15 18 26 31 30 29 29 28 22 29 33 32 32 35 34 29 24 17 12 10 12 23 28 30 28 16 12 11 11 11 12 14 13 14 13 12 11 11 13 13 14 13 13 14 14 14 12 12 12 12
4 4 4 4 4 4 4 5 5 5 4 4 5 5 5 5 5 6 6 7 7 7 8 8 8 9 10 11 12 12 11 10 10 10 10 12 12 15 16 15 22 24 17 13 16 17 20 21 18 23 22 29 28 26 22 21 17 15 12 11 11 11 12 11 11 13 15 13 14 13 13 12 11 12 11 12 13 14 14 15 15 13 11 11 12
5 5 4 4 4 4 5 6 6 5 5 5 6 6 5 5 5 7 7 7 7 8 7 8 10 11 12 13 12 10 10 9 9 9 10 11 11 11 11 11 11 10 11 12 13 14 14 17 19 13 12 12 12 9 9 10 12 12 12 11 11 13 16 22 23 16 13 12 12 10 11 11 14 12 13 12 15 14 14 14 16 15 12 10 11
4 4 4 3 4 3 4 5 5 6 6 5 6 6 7 6 7 8 9 8 8 8 8 11 10 9 8 8 9 10 9 10 9 17 19 24 21 17 13 12 12 11 15 25 18 10 8 9 8 9 9 10 10 10 10 10 10 11 13 12 12 12 11 9 10 12 12 12 12 12 12 13 12 12 12 15 14 16 14 16 16 15 11 11 13
3 4 4 4 4 3 4 5 4 5 6 7 7 7 8 13 10 7 8 13 17 19 17 11 11 10 9 7 7 9 9 12 24 28 26 26 28 29 27 28 27 22 25 30 20 13 11 9 7 7 8 7 8 9 10 9 11 11 11 13 13 11 10 10 11 11 11 11 11 12 11 12 11 14 14 16 16 15 14 17 15 13 12 11 12
3 4 3 4 4 4 4 5 5 5 6 6 5 7 9 8 12 15 15 14 16 18 18 19 20 18 12 10 10 21 23 25 25 25 27 27 28 28 27 26 27 26 26 19 13 10 9 9 9 8 8 8 9 10 10 11 10 11 12 10 10 10 13 11 10 9 10 10 10 10 10 12 14 16 15 16 15 14 13 14 15 15 15 13 12
5 4 4 4 4 4 4 4 5 5 5 4 5 5 6 10 12 9 10 12 15 16 15 15 14 14 18 17 14 10 16 22 25 25 26 26 25 25 25 26 25 24 24 20 10 9 8 9 9 9 9 10 10 9 10 10 11 11 11 12 12 11 10 10 9 8 9 10 11 12 12 13 14 16 16 15 12 11 11 10 12 12 12 11 11
5 4 4 4 4 5 4 5 5 5 5 5 5 4 5 6 9 13 16 16 14 9 9 8 10 16 19 20 20 18 19 21 24 24 24 24 24 23 25 24 22 21 19 11 9 10 10 10 10 10 10 10 11 10 12 13 13 13 12 11 13 13 11 10 10 9 10 10 11 11 13 14 16 17 15 12 10 10 12 13 12 11 10 10 9
5 4 4 4 4 4 4 5 5 5 4 4 4 5 4 5 7 8 9 12 18 15 3 3 8 15 18 19 18 19 21 21 22 23 23 22 23 23 22 16 18 16 13 9 9 9 10 10 11 10 11 11 11 12 12 12 12 12 13 13 13 12 11 9 8 9 9 10 10 11 13 13 13 13 13 11 10 10 8 6 8 9 9 10 9
5 5 7 5 4 5 5 4 5 4 4 4 5 4 5 5 5 6 6 8 8 9 14 16 16 18 17 15 18 21 21 21 22 23 23 22 23 24 21 11 13 12 10 7 8 8 9 10 11 12 11 12 12 12 13 13 13 13 13 14 14 12 10 9 8 9 9 10 11 11 11 12 12 12 12 11 9 8 10 9 8 9 9 8 9
5 4 3 4 4 4 4 5 5 5 5 5 5 5 5 5 6 5 6 6 6 8 10 10 11 17 23 20 22 23 24 22 22 23 21 22 21 21 11 11 10 10 10 9 8 9 9 9 10 10 10 10 11 11 11 12 12 13 13 13 15 14 11 10 10 10 10 10 11 12 12 11 11 10 9 9 10 9 7 6 7 8 9 9 9
5 4 3 3 4 4 5 5 4 5 6 5 4 4 5 5 6 5 6 5 6 6 7 9 11 12 12 7 12 20 23 21 21 18 17 18 20 11 5 7 7 8 9 9 9 10 10 9 9 9 9 10 11 11 12 12 13 13 14 13 13 14 12 10 10 10 11 11 11 11 11 11 10 9 9 9 7 6 6 5 7 8 9 10 11
5 5 4 4 4 4 5 5 5 6 5 3 3 4 5 5 5 5 6 6 6 6 7 8 7 7 10 12 15 11 13 18 21 16 14 14 10 7 7 6 7 7 8 8 8 9 10 10 9 9 10 9 10 11 11 12 12 12 12 13 13 12 18 15 15 12 11 10 10 10 10 11 10 9 8 7 7 5 4 2 2 4 3 2 2
4 6 8 9 7 5 5 4 4 3 4 3 4 5 6 5 5 5 5 5 5 6 6 6 6 7 8 8 10 12 12 10 10 10 11 9 9 8 8 8 8 8 8 8 9 9 9 10 10 9 9 10 10 10 11 11 11 12 12 12 12 11 12 10 12 11 11 10 10 9 9 10 8 8 7 7 6 5 4 5 5 5 6 7 7
5 3 5 7 5 5 4 5 4 4 5 4 5 4 5 6 5 5 5 5 5 6 6 6 7 7 7 8 8 8 7 8 8 9 10 10 10 10 8 9 9 9 10 10 9 9 10 9 9 10 10 10 10 10 10 10 11 11 11 11 11 12 11 10 10 11 11 11 10 9 9 9 9 7 7 5 6 5 5 5 5 5 5 5 5
4 4 4 5 6 5 4 4 4 4 4 5 6 5 6 6 6 6 5 5 5 6 6 6 7 7 7 10 16 15 6 6 8 8 8 9 9 9 9 8 9 10 10 9 9 9 9 10 10 10 10 9 9 9 10 10 10 11 11 10 11 11 11 10 10 9 10 10 10 10 9 9 7 6 5 3 3 2 1 1 1 2 2 3 4
5 4 4 4 5 4 4 6 6 5 5 6 5 5 6 6 5 5 5 5 6 6 6 7 6 6 10 17 14 16 8 4 5 7 7 7 8 8 8 8 7 7 9 9 10 10 10 10 10 10 10 10 10 10 10 10 10 10 11 10 10 9 10 10 10 10 10 10 10 10 9 9 9 7 6 3 3 3 3 3 2 3 4 4 5
5 4 4 5 5 5 5 5 3 4 4 5 5 5 6 5 4 5 5 6 5 5 5 7 7 6 7 11 12 13 5 5 5 6 6 7 7 8 8 8 8 8 8 8 8 9 9 10 10 10 10 11 11 10 10 10 10 10 10 10 11 11 11 11 11 11 10 11 10 9 9 8 8 7 7 6 3 4 4 4 3 3 3 4 5
4 4 5 5 5 4 5 4 4 5 4 6 6 6 5 4 4 4 5 5 5 5 6 6 6 7 7 8 7 6 5 6 6 6 7 7 7 7 8 8 9 9 8 8 8 8 9 9 9 10 10 10 10 10 9 9 9 9 10 10 10 11 11 11 11 11 9 8 9 8 7 7 7 6 6 7 6 4 3 4 5 4 4 4 5
4 4 5 6 4 5 5 4 4 5 6 6 4 4 6 4 5 5 5 5 6 6 5 6 5 6 7 6 6 6 6 6 7 8 7 7 7 7 7 8 9 9 9 9 8 9 9 9 9 10 11 10 11 11 10 10 8 8 8 10 10 10 10 11 10 9 9 9 8 8 7 6 6 6 5 5 5 4 4 3 3 4 5 4 5
5 6 6 5 5 6 5 5 6 5 4 5 5 6 5 5 5 4 5 6 6 5 6 6 6 5 6 6 5 7 6 6 7 7 8 7 7 7 7 7 8 8 8 8 9 9 9 9 9 9 10 10 11 11 11 11 10 8 8 9 9 9 10 10 9 9 9 9 8 7 7 6 6 6 6 5 5 5 4 4 4 4 3 4 4
5 6 5 5 5 6 6 6 4 5 5 6 5 5 5 5 5 5 6 6 6 6 6 6 6 6 6 5 5 6 7 6 7 7 8 8 7 7 7 8 8 8 8 8 8 8 9 9 9 9 10 10 10 11 11 10 10 10 9 8 8 10 10 10 9 9 8 8 7 6 6 6 6 5 6 6 5 5 5 5 4 4 4 4 4
6 6 6 6 4 5 5 4 5 6 6 5 4 5 5 5 5 5 6 5 5 6 6 6 6 6 6 6 5 5 6 6 7 7 7 7 7 7 7 8 8 8 8 9 8 8 8 8 9 9 9 10 10 10 10 10 10 11 11 9 9 11 14 14 9 9 8 8 7 7 6 6 5 6 6 6 5 5 5 4 4 4 5 4 5
5 6 5 5 5 6 6 6 7 6 5 5 4 5 5 4 5 5 5 5 6 6 7 6 6 6 6 5 5 5 6 7 7 7 7 7 7 7 7 8 8 8 8 8 8 8 9 9 9 9 9 10 10 10 10 10 10 10 12 11 15 24 19 19 12 10 11 8 8 8 7 6 6 6 6 5 5 5 5 5 5 5 5 6 6
6 5 5 5 6 6 6 6 5 5 5 5 5 5 5 5 5 6 5 5 6 6 6 6 6 6 6 6 7 6 5 6 7 7 7 7 7 7 7 8 8 8 7 8 8 8 8 8 9 9 10 10 10 10 10 10 9 10 10 13 21 22 18 17 15 17 12 7 8 6 7 7 6 6 6 6 6 6 6 6 6 6 6 7 7
6 6 6 6 6 5 5 5 5 5 5 5 5 5 5 5 6 5 5 5 6 7 6 6 6 6 6 5 6 6 7 7 7 6 7 7 7 7 7 7 8 8 8 8 8 8 8 8 8 9 9 10 10 9 10 10 9 11 16 22 22 21 20 16 11 14 17 11 7 7 7 7 7 7 7 7 7 7 8 8 7 7 6 6 6
Wind_Direction
65 57 68 63 79 63 25 25 21 23 16 12 15 3 360 357 356 346 340 350 349 348 347 345 343 341 339 340 341 340 341 339 342 335 329 321 317 306 306 309 307 305 305 306 308 308 305 302 300 295 291 281 272 273 275 272 268 255 250 253 255 246 237 249 260 274 275 225 270 264 265 246 274 218 246 246 255 246 233 234 233 233 234 231 231
108 118 59 47 70 10 358 353 18 24 17 6 6 359 353 351 339 346 346 329 344 333 335 334 335 333 333 331 330 330 329 330 333 338 336 334 329 326 320 313 305 301 302 299 301 300 297 298 296 299 301 290 284 276 267 272 269 265 257 242 247 252 225 247 260 267 279 266 272 272 280 215 265 183 230 243 248 242 239 233 227 228 232 232 231
208 219 159 133 151 358 353 18 13 18 10 358 0 351 349 340 341 343 331 327 322 319 317 320 317 318 319 321 325 327 329 329 329 331 328 326 323 321 322 318 312 308 305 298 295 294 290 289 290 295 299 295 291 283 276 270 265 262 264 251 251 251 241 232 255 269 274 277 248 272 262 253 234 252 226 244 241 236 243 240 227 229 229 229 234
216 203 207 245 11 16 18 6 15 0 6 352 356 347 344 340 335 340 331 334 336 334 339 330 331 331 328 325 324 321 319 315 316 317 317 317 316 314 314 312 308 303 300 300 299 295 288 288 286 288 292 290 290 289 285 277 272 270 267 265 255 261 251 243 238 256 273 280 265 250 265 257 262 250 253 256 251 252 239 251 232 234 229 222 227
198 216 191 212 24 27 0 359 6 358 360 355 351 346 344 342 343 342 337 341 340 334 332 337 328 330 329 324 321 321 317 316 313 309 304 299 296 297 299 303 303 300 295 291 290 292 291 285 287 289 287 283 283 286 289 285 280 275 274 273 269 263 263 251 255 253 265 269 276 253 248 257 260 265 230 249 259 250 252 246 237 236 233 230 228
208 80 58 59 21 19 349 356 4 358 359 357 354 350 347 352 349 349 349 341 340 338 334 336 337 328 328 323 319 316 313 313 308 304 302 300 295 292 288 284 283 285 291 293 291 284 283 286 287 287 283 279 282 282 281 283 285 280 278 276 273 271 270 264 256 261 261 267 269 278 244 256 267 261 232 225 247 257 256 250 254 242 238 241 232
88 91 95 77 54 358 3 359 2 4 360 355 354 356 358 354 354 350 349 343 337 336 336 333 331 327 322 323 322 321 320 317 314 308 305 302 297 293 291 288 285 284 279 279 282 286 284 282 282 281 281 279 281 281 281 278 278 277 275 280 279 280 277 272 267 263 263 270 273 261 267 245 236 263 249 212 236 239 251 260 257 236 227 229 244
108 101 84 67 47 1 5 345 12 5 356 5 3 1 358 354 352 346 344 341 339 338 335 332 326 326 322 323 322 326 322 319 317 316 313 312 306 298 295 292 291 288 286 284 282 279 279 281 283 283 280 279 280 281 280 279 276 273 274 275 280 279 277 278 276 270 270 270 270 278 261 265 250 242 274 135 260 267 238 241 255 249 230 228 231
97 96 101 80 22 6 353 4 9 5 4 5 5 360 354 347 344 344 340 337 336 332 329 329 327 326 326 327 327 325 320 316 319 320 316 310 307 304 302 298 297 295 292 288 285 282 280 277 277 278 280 280 281 285 286 286 287 287 280 276 276 274 274 274 273 273 271 270 275 271 274 267 254 252 245 230 231 249 236 196 245 250 247 243 240
106 110 93 67 10 7 2 12 9 2 10 4 3 352 347 344 342 340 339 336 333 328 332 335 329 328 328 325 324 321 316 317 317 316 313 310 309 305 299 296 294 292 291 291 286 283 280 280 279 283 286 287 287 288 288 288 285 283 287 287 281 275 270 270 270 267 268 271 268 274 273 267 261 244 242 237 239 251 253 213 242 253 236 250 259
112 110 106 86 38 19 28 13 10 11 7 2 351 349 344 341 337 334 334 336 333 337 337 331 335 330 324 322 321 318 316 316 315 314 313 310 307 301 296 292 290 288 286 286 289 290 289 286 284 287 286 285 286 286 286 286 286 285 283 281 278 277 277 272 265 263 265 263 267 267 265 271 267 256 246 247 238 226 236 229 240 249 237 237 257
112 110 97 75 47 36 19 12 9 4 360 352 347 344 340 338 336 334 333 334 336 335 333 332 329 325 322 319 314 313 312 311 312 310 309 307 306 303 299 297 297 294 294 294 293 295 294 291 286 285 283 285 288 289 288 287 287 287 286 285 284 281 278 278 278 273 262 263 264 261 264 263 272 267 257 241 243 227 226 233 232 235 240 238 246
106 93 73 62 45 33 21 19 0 354 351 347 340 342 341 337 337 336 333 330 328 333 331 328 323 324 319 316 313 310 305 308 308 307 306 306 306 304 298 295 294 294 296 297 297 298 301 301 302 299 300 299 295 285 283 284 284 285 286 286 283 280 277 274 272 272 277 270 264 265 257 266 268 265 256 252 231 233 215 233 231 234 237 241 244
100 91 70 58 38 27 21 7 357 346 344 342 342 339 339 332 327 321 319 325 327 324 323 319 319 317 316 311 307 307 303 306 306 306 308 307 306 305 298 298 296 296 298 298 298 298 299 300 300 299 299 301 299 301 301 296 292 286 278 271 269 275 276 273 272 267 264 265 267 267 267 261 262 268 263 255 250 242 229 238 224 235 234 239 243
89 94 82 60 37 18 8 357 348 340 341 338 336 330 324 318 318 319 322 323 324 322 322 320 315 312 308 305 301 301 301 305 307 308 308 308 307 306 302 301 299 297 296 294 291 291 291 292 291 292 294 292 291 291 289 284 277 271 269 269 270 272 270 268 266 271 275 272 267 267 272 270 268 267 268 256 247 250 244 242 233 234 240 249 255
106 102 79 49 24 6 2 347 340 335 329 328 323 316 313 309 314 317 315 311 303 306 303 305 305 305 301 300 299 297 299 306 307 308 308 308 309 307 305 300 296 293 292 293 294 294 294 293 294 293 293 295 298 299 298 297 293 288 281 276 270 264 261 265 271 272 270 270 270 269 266 263 264 265 264 262 257 253 256 259 256 245 245 247 249
131 117 114 42 14 4 352 337 324 319 318 315 311 308 310 309 307 309 308 307 308 308 303 301 300 299 299 296 297 295 295 305 307 308 309 309 310 303 300 298 297 296 292 293 292 292 292 292 292 294 294 293 292 290 290 290 285 282 281 280 277 276 276 281 284 283 281 278 276 272 269 268 268 267 265 262 260 255 248 249 244 234 237 243 247
152 135 154 148 336 332 325 315 304 303 305 301 300 300 300 297 298 307 304 307 304 300 300 298 291 291 293 294 293 294 296 303 307 307 309 308 306 303 298 290 289 292 292 290 291 290 291 292 292 291 290 287 287 286 284 285 280 277 274 275 275 273 275 278 269 267 272 274 276 279 281 281 276 270 266 264 262 257 246 243 239 233 238 231 244
167 167 199 221 263 291 295 288 287 290 290 288 292 296 299 298 299 299 289 289 291 297 296 293 292 288 284 286 293 296 295 300 303 305 306 305 304 295 291 285 280 282 291 289 285 282 280 281 284 286 286 287 287 287 287 288 284 284 287 286 285 285 293 302 288 281 274 266 266 270 274 275 275 276 272 266 262 259 252 248 240 233 235 232 236
168 153 186 233 256 271 276 274 275 279 282 286 285 283 289 296 293 293 290 286 291 294 291 289 292 291 290 289 289 290 293 292 295 302 303 302 301 298 289 289 286 284 281 278 283 275 268 264 273 282 285 287 287 288 288 286 284 280 276 274 275 277 278 273 273 279 281 276 270 262 259 264 269 269 271 270 261 253 251 246 243 236 232 234 231
155 191 204 244 255 260 265 263 274 275 272 279 281 283 282 284 290 287 291 292 288 291 291 291 290 290 291 288 290 290 285 290 290 297 299 298 298 299 289 282 280 279 280 276 270 267 259 259 261 274 282 286 287 287 287 286 284 280 272 265 264 274 281 273 272 275 271 273 272 270 267 260 258 257 261 260 257 251 248 244 242 238 233 233 229
179 197 232 248 254 267 267 273 267 269 276 278 284 279 270 269 275 282 282 287 292 290 292 293 292 291 290 289 289 288 288 287 288 291 292 294 296 298 296 285 285 284 282 273 273 264 266 270 270 279 284 285 285 285 285 284 282 278 277 280 283 285 286 281 279 275 265 270 269 269 269 265 262 256 252 248 248 249 250 246 242 239 235 233 229
198 214 236 248 258 262 266 268 273 273 275 272 276 281 280 277 272 272 280 285 285 288 290 293 293 293 293 290 288 288 287 285 287 287 288 292 297 298 297 296 294 292 286 281 274 273 267 269 269 280 282 283 284 284 282 281 283 282 281 281 283 285 287 285 281 276 273 269 267 266 266 266 265 260 256 252 248 248 249 244 242 240 238 238 233
200 223 240 249 259 265 264 267 265 267 268 274 272 278 282 274 273 272 276 281 288 290 288 289 290 289 295 296 289 286 284 283 282 288 291 291 297 300 299 298 297 291 286 278 275 270 277 275 272 275 279 279 278 281 285 293 295 295 297 296 294 293 292 289 285 280 279 273 270 268 268 267 266 266 266 269 266 259 252 243 239 237 237 237 235
201 236 246 254 260 261 268 265 267 267 268 267 277 277 280 278 285 272 272 279 278 282 285 283 283 287 290 290 292 288 284 280 280 281 291 296 301 301 298 295 294 295 293 283 276 273 277 281 282 285 288 293 297 301 303 299 292 291 289 289 289 284 279 268 270 269 268 266 265 265 264 265 266 270 271 270 272 270 263 254 238 232 231 232 233
222 241 247 253 257 266 278 278 270 267 267 262 258 263 270 280 277 284 277 272 269 275 281 280 278 281 283 285 290 292 290 286 285 286 285 286 289 291 291 290 289 289 289 288 289 290 290 289 290 292 295 292 290 284 271 278 285 289 290 290 289 281 274 272 265 265 264 266 267 266 265 267 264 267 270 270 268 262 265 258 247 230 222 225 228
224 246 254 257 267 265 271 278 281 274 269 268 263 265 263 258 263 272 274 275 272 267 270 276 281 280 286 290 292 295 289 286 290 291 290 291 285 281 282 277 277 280 280 275 277 280 276 276 274 276 278 282 285 290 291 291 291 288 281 274 269 265 264 261 261 261 265 263 264 262 266 266 265 263 259 260 259 259 256 257 250 237 218 217 221
218 240 248 250 263 263 267 274 278 285 277 274 281 279 260 246 251 260 267 267 273 272 269 274 280 285 284 284 284 283 290 293 294 297 295 287 290 294 291 292 292 282 283 279 274 272 272 273 273 271 274 277 281 276 272 274 275 278 275 272 266 261 260 261 261 260 258 258 260 266 265 264 263 261 260 257 258 258 254 251 246 238 220 207 216
224 243 251 257 265 263 261 271 276 279 284 273 259 256 272 268 262 261 249 241 235 239 239 238 255 268 277 286 296 296 300 302 298 308 308 311 312 312 311 306 301 299 301 308 308 299 271 272 265 273 269 272 272 271 272 272 271 267 268 267 264 263 263 254 255 255 254 258 262 263 262 263 264 260 260 259 258 257 249 247 238 236 223 208 215
226 251 246 248 257 266 274 273 273 275 275 284 286 282 264 284 278 269 276 274 276 282 290 293 296 297 297 292 300 305 306 304 310 314 315 315 315 312 310 310 312 315 318 321 321 313 309 308 302 292 290 291 291 291 288 285 284 282 278 276 276 274 267 263 258 259 257 259 260 264 265 267 267 266 265 260 257 249 240 237 237 229 222 206 212
222 244 250 253 250 254 263 275 274 270 272 279 284 299 309 302 297 288 279 277 287 294 298 299 304 309 311 309 309 309 310 313 318 319 319 320 320 321 321 320 319 322 326 326 319 313 318 316 307 299 294 292 291 291 291 291 289 289 288 285 278 272 275 270 268 264 263 260 262 262 265 267 267 268 265 260 250 240 242 238 232 220 216 208 208
210 231 229 245 262 267 263 264 271 273 275 273 284 300 306 314 313 297 288 293 300 300 299 306 312 318 321 322 319 310 318 322 322 324 328 331 332 330 328 327 330 332 330 335 329 327 323 317 316 314 316 309 305 303 300 297 296 296 295 296 291 285 278 273 268 262 263 263 264 267 268 268 271 270 265 258 241 240 236 231 223 214 206 202 203
209 227 229 246 254 261 267 262 267 265 275 287 293 294 302 309 311 318 321 318 314 302 300 311 326 328 328 327 327 327 327 327 328 334 339 340 338 338 337 338 336 338 345 351 342 330 330 326 321 320 318 310 311 313 311 307 305 302 302 296 294 293 284 274 272 269 266 266 269 270 270 269 269 271 276 265 245 240 234 224 213 205 201 198 202
208 211 222 229 243 254 251 255 258 264 263 273 273 284 281 281 291 302 313 323 331 335 325 271 322 331 327 328 329 331 332 332 337 344 346 345 344 347 349 339 335 350 1 349 342 332 328 323 321 321 319 315 312 311 307 304 304 302 301 303 297 292 288 281 272 268 267 268 265 266 269 269 274 282 285 278 258 243 239 226 208 203 199 197 194
212 226 232 233 233 245 252 256 259 266 270 270 273 276 278 279 290 294 296 308 316 309 315 320 325 333 332 330 333 335 337 338 346 350 348 349 351 353 348 341 347 348 354 353 339 329 323 323 320 320 318 314 311 309 306 305 304 306 307 306 305 301 294 288 278 272 270 272 272 271 273 279 286 287 288 280 269 247 236 221 209 201 200 197 193
213 220 223 231 236 241 250 250 255 257 260 268 261 261 268 288 290 281 285 289 284 296 302 305 308 317 325 332 336 339 339 341 349 353 349 348 351 355 347 345 341 341 338 335 332 327 325 318 316 311 310 305 308 306 306 305 308 311 309 308 313 310 301 293 288 282 277 275 275 277 279 282 283 286 286 283 270 258 240 225 210 205 201 193 188
210 217 225 227 225 238 247 248 250 250 262 261 270 287 284 277 273 278 285 278 286 285 288 301 313 316 324 324 329 331 330 336 345 349 346 346 350 351 330 327 320 321 326 328 327 324 322 318 311 306 306 308 308 308 309 309 311 310 310 310 309 312 309 297 289 281 284 285 286 287 287 284 285 283 280 278 275 276 267 231 205 202 203 200 189
208 214 221 223 235 242 241 243 245 257 265 278 276 272 281 276 269 275 279 285 288 297 301 302 306 307 313 317 327 320 317 334 341 345 349 349 346 340 334 328 330 327 323 321 322 317 315 312 311 310 308 306 305 309 309 309 311 311 311 310 311 312 322 325 321 314 305 297 297 297 296 292 288 287 278 265 254 240 225 243 217 182 166 116 132
218 225 232 242 249 233 226 239 250 257 268 265 269 271 272 273 281 278 274 279 287 291 285 290 294 298 300 308 316 311 325 343 346 336 332 331 332 333 333 333 330 328 322 318 317 317 313 312 313 311 307 308 309 310 311 311 312 312 313 312 310 312 325 331 331 331 328 323 317 310 305 301 298 289 278 265 262 248 230 198 195 195 188 193 190
211 214 230 243 244 259 264 262 259 261 263 268 266 256 262 271 274 276 281 286 291 289 288 293 295 290 299 304 295 312 340 339 332 324 322 325 330 332 333 331 332 329 327 323 321 318 316 312 312 313 311 310 311 311 312 312 313 309 313 316 315 318 324 329 330 328 326 322 316 312 311 312 310 303 289 276 269 260 246 224 210 202 209 206 196
206 210 208 230 239 244 252 252 254 254 252 252 254 260 260 263 265 272 278 280 283 285 289 283 280 285 289 302 319 333 355 336 319 316 314 317 319 323 326 326 326 324 322 320 318 316 315 314 314 313 310 308 310 314 316 317 317 317 316 317 321 318 320 322 324 324 325 322 321 319 319 316 312 312 306 320 327 324 327 115 107 104 108 107 121
199 206 218 227 240 244 243 246 244 250 255 259 261 258 257 260 262 266 271 279 280 285 290 287 282 281 295 312 326 339 345 319 308 305 307 308 310 313 315 316 314 313 315 317 319 319 319 317 314 314 315 316 317 317 321 322 324 322 320 321 323 320 321 324 325 326 328 327 327 327 327 326 326 328 334 10 56 32 30 41 68 96 107 116 115
197 208 216 224 224 227 230 240 243 249 258 251 254 254 256 259 261 264 271 271 272 279 280 289 294 296 298 314 329 335 333 309 306 307 300 306 307 311 312 315 314 310 310 308 310 312 313 313 314 316 318 319 319 319 321 323 327 327 325 323 324 328 328 327 328 331 331 330 328 327 331 333 335 334 334 337 1 75 88 70 58 67 84 106 116
202 217 218 225 229 233 237 234 246 245 246 251 257 257 261 263 262 265 264 267 270 269 271 278 285 300 303 316 326 331 320 320 313 309 307 308 308 311 314 313 316 315 315 313 313 314 315 314 315 316 316 318 320 320 316 315 322 328 331 326 322 326 332 333 330 327 322 319 327 329 333 338 341 343 341 344 351 18 45 86 101 101 102 101 109
204 210 222 231 233 231 244 240 234 243 250 257 262 265 262 261 266 263 261 267 270 274 275 275 285 293 302 308 320 319 316 314 309 306 304 306 309 309 312 314 317 317 315 314 314 316 316 317 315 319 321 323 325 327 326 321 317 321 330 332 329 330 333 332 326 320 321 325 324 326 331 337 342 345 348 351 360 12 27 36 68 102 104 107 117
202 209 218 219 228 232 233 235 235 236 240 244 251 258 256 257 257 260 268 268 271 277 280 284 287 288 290 298 303 309 307 307 302 299 299 304 306 308 308 311 311 311 310 310 311 315 315 316 318 319 322 323 327 329 330 328 326 321 329 336 335 333 330 328 327 328 328 329 329 327 331 336 346 349 2 5 9 22 28 34 38 49 73 92 104
203 208 214 217 220 227 228 229 228 233 234 240 241 246 259 256 255 258 263 269 274 276 280 282 286 287 289 292 298 301 302 303 300 302 300 301 303 305 310 311 312 311 312 312 312 312 315 315 316 316 318 321 323 327 332 334 335 334 333 337 338 346 343 339 335 335 331 329 330 334 340 341 349 352 2 12 22 27 37 39 43 63 58 78 83
206 208 213 217 217 226 233 230 232 238 235 235 237 246 252 258 264 265 265 266 270 271 274 276 273 273 280 285 286 289 292 290 292 289 295 297 301 304 308 310 311 312 312 312 314 316 316 316 315 316 317 321 325 327 329 334 337 342 338 340 345 356 352 350 341 343 341 339 338 342 345 352 359 4 9 17 25 24 40 37 45 47 64 67 76
204 206 213 215 217 221 224 224 224 226 229 229 240 251 250 255 258 258 261 267 267 268 265 271 277 276 274 277 283 286 285 289 291 294 295 297 301 303 306 307 308 309 310 310 312 316 316 315 316 315 317 319 322 325 326 329 338 346 344 341 352 358 358 360 356 350 352 351 347 349 351 359 5 11 16 24 27 32 43 37 44 51 56 59 66
208 209 211 217 221 224 222 221 226 230 231 233 239 247 248 249 254 254 256 261 267 268 264 261 263 270 275 288 294 292 292 289 290 293 296 299 301 303 305 307 308 308 309 308 311 313 314 314 316 316 318 318 322 325 325 323 334 345 347 347 354 359 360 0 357 359 2 356 354 355 357 3 4 11 12 22 25 37 39 40 41 50 56 64 66
213 214 216 218 221 223 218 221 230 228 230 233 232 238 247 247 249 255 257 259 261 263 263 260 263 267 269 264 271 279 284 282 280 281 287 292 297 302 303 306 307 308 306 306 309 311 312 316 317 318 318 318 321 323 325 321 333 349 350 355 358 1 3 5 5 2 7 11 359 359 10 12 18 17 18 17 28 35 49 52 49 49 52 55 60